sat.trackr.live / text

‹ back to catalog

STARLINK-33568

NORAD 62779 · 2025-015X

PAYLOAD ACTIVE UNKNOWN

§ Identity

Operator
Country
US
Launch date
2025-01-21
Launch site
AFWTR
Launch vehicle
Mass (kg)
RCS (m²)

Purposes: comms

External: N2YO · Heavens-Above · Gunter

§ Orbital elements

Epoch: 2026-05-25T04:00:03.998880Z

Period
93.90 min
Inclination
53.1593°
Eccentricity
0.0000950
Mean motion
15.33569041 rev/d
Perigee alt
464.5 km
Apogee alt
465.8 km
Semi-major
6,843.3 km
B*
-7.2354e-4
RAAN
327.1767°
Arg perigee
76.1778°
Mean anomaly
183.4946°
Rev number
585

§ Raw data

STARLINK-335681 62779U 25015X   26145.16671295 -.00024107  00000+0 -72354-3 0  99982 62779  53.1593 327.1767 0000950  76.1778 183.4946 15.33569041  5852

JSON: /api/v1/satellites/62779 · /tle

For live sub-satellite position, see the globe view (requires WebGL).

§ Visibility from observer

Set your observer location to see the next 7 days of passes ≥ 10°. The values pass through the URL so the page stays shareable.

No JS? Fill the form by hand. The geolocation button needs JavaScript.